Tracking 33873 objects as of 21-Apr-2026
HD Live streaming from Space Station
objects crossing your sky now

SL-16 DEB

Track SL-16 DEB now!
10-day predictions


NORAD ID: 39886
Int'l Code: 1993-016BL
Perigee: 607.1 km
Apogee: 674.4 km
Inclination: 71.0 °
Period: 97.4 minutes
Semi major axis: 7011 km
RCS: 0.0136 m2 (small)
Launch date: March 26, 1993
Source: Commonwealth of Independent States (former USSR) (CIS)
Launch site: TYURATAM MISSILE AND SPACE COMPLEX (TTMTR)

Note: This is SATELLITE DEBRIS
Your satellite tracking list
Your tracking list is empty




NASA's NSSDC Master Catalog

Two Line Element Set (TLE):
1 39886U 93016BL  26108.59517140  .00004589  00000-0  62291-3 0  9991
2 39886  71.0053  87.5627 0047959 310.2845  49.4122 14.78634808633489
Source of the keplerian elements: AFSPC